Location: Buckland
(65.9785°N, 161.1281°W)
Time: 18:01:27
(UTC+00:00)

Transit 2A - All Passes

Search period start: 04 December 2020 00:00
Search period end: 14 December 2020 00:00
Orbit: 595 x 963 km, 66.7° (Epoch: 03 December)

Date Brightness Start Highest point End Pass type
(mag) Time Alt. Az. Time Alt. Az. Time Alt. Az.
04 Dec - 02:42:24 10° SSE 02:47:00 23° ESE 02:51:21 10° ENE visible
04 Dec - 04:23:28 10° SW 04:29:22 52° SE 04:34:48 10° ENE visible
04 Dec - 06:06:27 10° WSW 06:12:29 88° SSE 06:17:56 10° ENE visible
04 Dec - 07:50:03 10° W 07:55:55 85° N 08:01:11 10° E visible
04 Dec - 09:33:32 10° WNW 09:39:08 65° SSW 09:44:09 10° SE visible
04 Dec - 11:17:02 10° WNW 11:21:36 28° WSW 11:25:47 10° S night (unlit)
05 Dec - 02:09:02 10° SSE 02:13:05 19° ESE 02:16:57 10° ENE visible
05 Dec - 03:49:31 10° SSW 03:55:17 45° SE 04:00:37 10° ENE visible
05 Dec - 05:32:14 10° WSW 05:38:17 83° SSE 05:43:45 10° ENE visible
05 Dec - 07:15:48 10° W 07:21:42 83° N 07:26:59 10° E visible
05 Dec - 08:59:20 10° WNW 09:05:00 73° SSW 09:10:04 10° SE visible
05 Dec - 10:42:46 10° WNW 10:47:39 33° SW 10:52:05 10° S night (unlit)
05 Dec - 12:27:54 10° W 12:29:16 11° WSW 12:30:37 10° WSW night (unlit)
06 Dec - 01:35:55 10° SE 01:39:13 15° ESE 01:42:24 10° ENE daylight
06 Dec - 03:15:39 10° SSW 03:21:15 39° SE 03:26:25 10° ENE visible
06 Dec - 04:58:05 10° WSW 05:04:06 76° SSE 05:09:35 10° ENE visible
06 Dec - 06:41:34 10° W 06:47:28 83° N 06:52:47 10° E visible
06 Dec - 08:25:07 10° WNW 08:30:50 80° SSW 08:35:57 10° ESE visible
06 Dec - 10:08:33 10° WNW 10:13:39 40° SW 10:18:16 10° SSE visible
06 Dec - 11:52:49 10° WNW 11:55:29 14° WSW 11:58:02 10° SW night (unlit)
07 Dec - 01:03:14 10° SE 01:05:24 12° ESE 01:07:30 10° E daylight
07 Dec - 02:41:53 10° S 02:47:14 33° SE 02:52:13 10° ENE visible
07 Dec - 04:23:57 10° SW 04:29:57 69° SSE 04:35:25 10° ENE visible
07 Dec - 06:07:18 10° W 06:13:15 84° N 06:18:35 10° E visible
07 Dec - 07:50:54 10° WNW 07:56:40 87° SSW 08:01:48 10° ESE visible
07 Dec - 09:34:19 10° WNW 09:39:37 47° SW 09:44:22 10° SSE visible
07 Dec - 11:18:12 10° WNW 11:21:39 18° WSW 11:24:54 10° SSW night (unlit)
08 Dec - 02:08:12 10° S 02:13:14 28° ESE 02:17:58 10° ENE visible
08 Dec - 03:49:52 10° SW 03:55:49 61° SE 04:01:15 10° ENE visible
08 Dec - 05:33:05 10° WSW 05:39:02 87° N 05:44:24 10° E visible
08 Dec - 07:16:40 10° WNW 07:22:28 89° NNE 07:27:37 10° ESE visible
08 Dec - 09:00:08 10° WNW 09:05:33 55° SW 09:10:25 10° SE visible
08 Dec - 10:43:47 10° WNW 10:47:47 22° WSW 10:51:30 10° SSW night (unlit)
09 Dec - 01:34:39 10° SSE 01:39:17 23° ESE 01:43:40 10° ENE daylight
09 Dec - 03:15:50 10° SW 03:21:43 54° SE 03:27:04 10° ENE visible
09 Dec - 04:58:51 10° WSW 05:04:49 89° SSE 05:10:12 10° ENE visible
09 Dec - 06:42:27 10° W 06:48:15 85° N 06:53:27 10° E visible
09 Dec - 08:25:55 10° WNW 08:31:27 63° SW 08:36:23 10° SE visible
09 Dec - 10:09:27 10° WNW 10:13:52 26° WSW 10:17:56 10° S visible
10 Dec - 01:01:16 10° SSE 01:05:23 19° ESE 01:09:18 10° ENE daylight
10 Dec - 02:41:53 10° SSW 02:47:37 46° SE 02:52:54 10° ENE visible
10 Dec - 04:24:39 10° WSW 04:30:38 84° SSE 04:36:02 10° ENE visible
10 Dec - 06:08:12 10° W 06:14:02 83° N 06:19:15 10° E visible
10 Dec - 07:51:43 10° WNW 07:57:19 71° SSW 08:02:19 10° SE visible
10 Dec - 09:35:11 10° WNW 09:39:55 32° SW 09:44:15 10° S visible
10 Dec - 11:21:03 10° W 11:21:31 10° WSW 11:21:57 10° WSW night (unlit)
11 Dec - 00:28:06 10° SE 00:31:31 16° ESE 00:34:46 10° ENE daylight
11 Dec - 02:07:59 10° SSW 02:13:34 40° SE 02:18:43 10° ENE visible
11 Dec - 03:50:28 10° WSW 03:56:27 77° SSE 04:01:51 10° ENE visible
11 Dec - 05:33:58 10° W 05:39:48 83° N 05:45:03 10° E visible
11 Dec - 07:17:31 10° WNW 07:23:10 79° SSW 07:28:12 10° ESE visible
11 Dec - 09:00:56 10° WNW 09:05:56 38° SW 09:10:27 10° SSE visible
11 Dec - 10:45:21 10° W 10:47:43 13° WSW 10:49:59 10° SW night (unlit)
11 Dec - 23:55:19 10° SE 23:57:40 12° ESE 23:59:56 10° E daylight
12 Dec - 01:34:11 10° S 01:39:32 34° SE 01:44:30 10° ENE daylight
12 Dec - 03:16:19 10° SW 03:22:18 70° SSE 03:27:41 10° ENE visible
12 Dec - 04:59:43 10° W 05:05:35 84° N 05:10:52 10° E visible
12 Dec - 06:43:18 10° WNW 06:48:59 85° SSW 06:54:03 10° ESE visible
12 Dec - 08:26:43 10° WNW 08:31:54 45° SW 08:36:34 10° SSE visible
12 Dec - 10:10:41 10° WNW 10:13:54 17° WSW 10:16:56 10° SSW visible
13 Dec - 01:00:30 10° S 01:05:33 28° ESE 01:10:16 10° ENE daylight
13 Dec - 02:42:14 10° SW 02:48:09 62° SE 02:53:31 10° ENE visible
13 Dec - 04:25:29 10° W 04:31:22 86° N 04:36:40 10° E visible
13 Dec - 06:09:05 10° WNW 06:14:47 89° NNE 06:19:53 10° ESE visible
13 Dec - 07:52:31 10° WNW 07:57:50 53° SW 08:02:37 10° SE visible
13 Dec - 09:36:13 10° WNW 09:40:02 20° WSW 09:43:36 10° SSW visible
